| time (UTC) | temp C | wind direction | speed KPH | gust KPH | rain 1hr cm | rain 24hr cm | rain mn cm | humidity % | barometer mb |
| 20260507191514 | 9 | 297 | 0.0 | 0.0 | 0.00 | 0.00 | 0.00 | 76 | 1018.2 |
| 20260507190514 | 10 | 294 | 0.0 | 0.0 | 0.00 | 0.00 | 0.00 | 75 | 1018.0 |
| 20260507182513 | 11 | 298 | 4.8 | 11.3 | 0.00 | 0.00 | 0.00 | 71 | 1017.7 |
| 20260507181514 | 11 | 280 | 4.8 | 11.3 | 0.00 | 0.00 | 0.00 | 70 | 1017.8 |
| 20260507180514 | 11 | 285 | 6.4 | 12.9 | 0.00 | 0.00 | 0.00 | 68 | 1017.7 |
| 20260507175514 | 12 | 329 | 8.0 | 12.9 | 0.00 | 0.00 | 0.00 | 66 | 1017.7 |
| 20260507174513 | 13 | 296 | 8.0 | 12.9 | 0.00 | 0.00 | 0.00 | 63 | 1017.6 |
| 20260507170515 | 15 | 311 | 6.4 | 12.9 | 0.00 | 0.00 | 0.00 | 50 | 1017.4 |
| 20260507165514 | 16 | 339 | 3.2 | 11.3 | 0.00 | 0.00 | 0.00 | 48 | 1017.3 |
| 20260507162514 | 16 | 337 | 6.4 | 12.9 | 0.00 | 0.00 | 0.00 | 49 | 1017.4 |
| 20260507155514 | 15 | 351 | 9.7 | 16.1 | 0.00 | 0.00 | 0.00 | 55 | 1017.4 |
| 20260507154515 | 15 | 290 | 8.0 | 12.9 | 0.00 | 0.00 | 0.00 | 58 | 1017.5 |
| 20260507153513 | 15 | 353 | 8.0 | 14.5 | 0.00 | 0.00 | 0.00 | 54 | 1017.4 |
| 20260507152513 | 16 | 309 | 9.7 | 16.1 | 0.00 | 0.00 | 0.00 | 53 | 1017.4 |
| 20260507151513 | 15 | 352 | 8.0 | 16.1 | 0.00 | 0.00 | 0.00 | 55 | 1017.2 |
| 20260507143514 | 15 | 347 | 6.4 | 16.1 | 0.00 | 0.00 | 0.00 | 59 | 1017.2 |
| 20260507134514 | 15 | 343 | 8.0 | 12.9 | 0.00 | 0.00 | 0.00 | 56 | 1017.4 |
| 20260507132514 | 15 | 346 | 8.0 | 19.3 | 0.00 | 0.00 | 0.00 | 58 | 1017.3 |
| 20260507131514 | 15 | 339 | 6.4 | 16.1 | 0.00 | 0.00 | 0.00 | 58 | 1017.3 |
| 20260507130513 | 15 | 331 | 6.4 | 19.3 | 0.00 | 0.00 | 0.00 | 57 | 1017.2 |
| 20260507125514 | 15 | 324 | 12.9 | 19.3 | 0.00 | 0.00 | 0.00 | 51 | 1017.2 |
| 20260507123515 | 15 | 335 | 8.0 | 16.1 | 0.00 | 0.00 | 0.00 | 58 | 1017.1 |
| 20260507121514 | 15 | 348 | 9.7 | 16.1 | 0.00 | 0.00 | 0.00 | 57 | 1017.0 |
| 20260507115515 | 15 | 306 | 6.4 | 19.3 | 0.00 | 0.00 | 0.00 | 63 | 1017.0 |
| 20260507113514 | 15 | 347 | 9.7 | 16.1 | 0.00 | 0.00 | 0.00 | 60 | 1017.0 |
| 20260507111514 | 15 | 339 | 6.4 | 19.3 | 0.00 | 0.00 | 0.00 | 70 | 1017.0 |
| 20260507110514 | 14 | 279 | 9.7 | 20.9 | 0.00 | 0.00 | 0.00 | 68 | 1017.0 |
| 20260507105514 | 14 | 318 | 9.7 | 16.1 | 0.00 | 0.00 | 0.00 | 68 | 1017.0 |
| 20260507104515 | 14 | 334 | 9.7 | 19.3 | 0.00 | 0.00 | 0.00 | 67 | 1016.9 |
| 20260507103513 | 14 | 311 | 8.0 | 14.5 | 0.00 | 0.00 | 0.00 | 68 | 1016.9 |
| 20260507101514 | 13 | 316 | 9.7 | 19.3 | 0.00 | 0.00 | 0.00 | 67 | 1016.8 |
| 20260507100514 | 13 | 325 | 9.7 | 16.1 | 0.00 | 0.00 | 0.00 | 63 | 1016.7 |
| 20260507095513 | 13 | 279 | 9.7 | 19.3 | 0.00 | 0.00 | 0.00 | 69 | 1016.7 |
| 20260507094513 | 13 | 293 | 4.8 | 16.1 | 0.00 | 0.00 | 0.00 | 71 | 1016.7 |
| 20260507093513 | 13 | 352 | 8.0 | 14.5 | 0.00 | 0.00 | 0.00 | 71 | 1016.6 |
| 20260507092513 | 13 | 284 | 8.0 | 19.3 | 0.00 | 0.00 | 0.00 | 71 | 1016.5 |
| 20260507085513 | 13 | 308 | 8.0 | 19.3 | 0.00 | 0.00 | 0.00 | 71 | 1016.4 |
| 20260507084513 | 13 | 321 | 8.0 | 19.3 | 0.00 | 0.00 | 0.00 | 71 | 1016.3 |
| 20260507083513 | 12 | 312 | 8.0 | 19.3 | 0.00 | 0.00 | 0.00 | 75 | 1016.2 |
| 20260507080513 | 12 | 299 | 12.9 | 16.1 | 0.00 | 0.00 | 0.00 | 76 | 1015.9 |
| 20260507074514 | 12 | 347 | 9.7 | 16.1 | 0.00 | 0.00 | 0.00 | 76 | 1015.8 |
| 20260507070514 | 12 | 253 | 4.8 | 14.5 | 0.00 | 0.00 | 0.00 | 77 | 1015.5 |
| 20260507065512 | 12 | 267 | 4.8 | 11.3 | 0.00 | 0.00 | 0.00 | 76 | 1015.4 |
| 20260507063513 | 12 | 250 | 1.6 | 9.7 | 0.00 | 0.00 | 0.00 | 77 | 1015.4 |
| 20260507062513 | 11 | 218 | 3.2 | 11.3 | 0.00 | 0.00 | 0.00 | 78 | 1015.3 |
| 20260507053513 | 8 | 309 | 0.0 | 3.2 | 0.00 | 0.00 | 0.00 | 87 | 1015.2 |
| 20260507045513 | 6 | 240 | 0.0 | 1.6 | 0.00 | 0.00 | 0.00 | 93 | 1014.9 |
| 20260507042513 | 4 | 235 | 0.0 | 0.0 | 0.00 | 0.00 | 0.00 | 94 | 1014.7 |
| 20260507041513 | 3 | 307 | 0.0 | 0.0 | 0.00 | 0.00 | 0.00 | 93 | 1014.6 |
| 20260507040513 | 3 | 244 | 0.0 | 0.0 | 0.00 | 0.00 | 0.00 | 93 | 1014.6 |
| 20260507031514 | 3 | 237 | 3.2 | 4.8 | 0.00 | 0.00 | 0.00 | 92 | 1014.3 |
| 20260507025513 | 3 | 236 | 0.0 | 3.2 | 0.00 | 0.00 | 0.00 | 92 | 1014.1 |
| 20260507024514 | 3 | 236 | 1.6 | 3.2 | 0.00 | 0.00 | 0.00 | 92 | 1014.1 |
| 20260507022514 | 3 | 236 | 0.0 | 0.0 | 0.00 | 0.00 | 0.00 | 92 | 1013.9 |
| 20260507021514 | 3 | 236 | 0.0 | 4.8 | 0.00 | 0.00 | 0.00 | 91 | 1013.9 |
| 20260507020513 | 3 | 236 | 0.0 | 3.2 | 0.00 | 0.00 | 0.00 | 91 | 1013.8 |
| 20260507015513 | 3 | 236 | 0.0 | 1.6 | 0.00 | 0.00 | 0.00 | 91 | 1013.7 |
| 20260507014513 | 3 | 236 | 0.0 | 0.0 | 0.00 | 0.00 | 0.00 | 91 | 1013.8 |
| 20260507013513 | 3 | 236 | 0.0 | 3.2 | 0.00 | 0.00 | 0.00 | 90 | 1013.7 |
| 20260507000513 | 6 | 235 | 1.6 | 9.7 | 0.00 | 0.00 | 0.00 | 88 | 1013.4 |
| 20260506235514 | 7 | 211 | 8.0 | 12.9 | 0.00 | 0.00 | 0.00 | 88 | 1013.4 |
| 20260506234514 | 7 | 189 | 4.8 | 11.3 | 0.00 | 0.00 | 0.00 | 88 | 1013.3 |
| 20260506232514 | 7 | 195 | 4.8 | 11.3 | 0.00 | 0.00 | 0.00 | 88 | 1013.4 |
| 20260506230513 | 7 | 187 | 4.8 | 9.7 | 0.00 | 0.00 | 0.00 | 87 | 1013.3 |
| 20260506225514 | 7 | 192 | 4.8 | 9.7 | 0.00 | 0.00 | 0.00 | 87 | 1013.2 |
| 20260506224514 | 7 | 196 | 3.2 | 11.3 | 0.00 | 0.00 | 0.00 | 86 | 1013.3 |
| 20260506222513 | 7 | 168 | 8.0 | 11.3 | 0.00 | 0.00 | 0.00 | 86 | 1013.1 |
| 20260506220514 | 7 | 160 | 4.8 | 12.9 | 0.00 | 0.00 | 0.00 | 85 | 1013.2 |
| 20260506215513 | 7 | 164 | 4.8 | 14.5 | 0.00 | 0.00 | 0.00 | 85 | 1013.1 |
| 20260506214513 | 7 | 166 | 4.8 | 14.5 | 0.00 | 0.00 | 0.00 | 85 | 1013.1 |
| 20260506211514 | 7 | 183 | 8.0 | 12.9 | 0.00 | 0.00 | 0.00 | 83 | 1013.0 |
| 20260506204513 | 8 | 161 | 4.8 | 9.7 | 0.00 | 0.00 | 0.00 | 80 | 1012.8 |
| 20260506203513 | 8 | 202 | 4.8 | 14.5 | 0.00 | 0.00 | 0.00 | 79 | 1012.7 |
| 20260506202513 | 8 | 198 | 6.4 | 14.5 | 0.00 | 0.00 | 0.00 | 78 | 1012.6 |
| 20260506201513 | 8 | 192 | 6.4 | 12.9 | 0.00 | 0.00 | 0.00 | 77 | 1012.6 |